Weather WX

World > North America > United States > Missouri

Connelsville, Missouri Regional Weather

Lat: 40.28N, Lon: 92.7W
Wx Zone: MOZ017
Feedback

Connelsville, MO Regional Weather

Expires:201906242000;;013927
ASUS43 KEAX 241910
RWREAX

WEATHER ROUNDUP FOR EASTERN KANSAS AND NORTHWEST MISSOURI
NATIONAL WEATHER SERVICE KANSAS CITY/PLEASANT HILL MO
200 PM CDT MON JUN 24 2019


MOZ001>008-011>017-020>025-030>033-038>040-044>046-053-054-242000-
...NORTHERN AND CENTRAL MISSOURI...
  
CITY           SKY/WX    TMP DP  RH WIND       PRES   REMARKS
ST. JOSEPH     SUNNY     78  58  49 W15       29.83R                  
MOSBY          PTCLDY    73  52  46 W12G18    29.85R                  
WHITEMAN AFB   MOSUNNY   76  60  57 W15       29.81S                  
CLINTON        MOSUNNY   75  61  60 W14G20    29.88R                  
SEDALIA        PTSUNNY   73  60  63 NW13G21   29.86R                  
WARSAW         NOT AVBL                                               
CHILLICOTHE      N/A     75  58  55 W8        29.81S                  
KIRKSVILLE     PTSUNNY   73  60  63 W15G23    29.78R                  

$$


SKY/WX - Weather  TMP - Temperature  DP - Dew Point  RH - Relative Humidity
WIND - Wind Direction/Speed PRES - Barometric Pressure VSB - Visibility
WCI - Wind Chill Index E13G22 Wind - East Wind 13 mph/Gusts of 22 mph